This is the latest recevied weather packets stored in our database for station/object W4SKW. If no packets are shown the sender has not sent any weather packets the latest 10 day(s).
| Time | Temp. | Humidity | Pressure | Rain* | Wind** | Luminosity | Snow |
|---|---|---|---|---|---|---|---|
| 1777762215 | 19.44° C | 38% | 1015.7 hPa | 0 mm | - | 145 W/m² | - |
| 1777761911 | 18.89° C | 39% | 1015.9 hPa | 0 mm | - | 155 W/m² | - |
| 1777761608 | 19.44° C | 38% | 1016 hPa | 0 mm | - | 203 W/m² | - |
| 1777761306 | 19.44° C | 38% | 1016 hPa | 0 mm | - | 203 W/m² | - |
| 1777761004 | 19.44° C | 38% | 1015.8 hPa | 0 mm | - | 232 W/m² | - |
| 1777760701 | 19.44° C | 38% | 1015.6 hPa | 0 mm | - | 234 W/m² | - |
| 1777760397 | 18.89° C | 42% | 1016 hPa | 0 mm | - | 272 W/m² | - |
| 1777760093 | 18.89° C | 39% | 1015.7 hPa | 0 mm | - | 310 W/m² | - |
| 1777759790 | 18.33° C | 39% | 1015.5 hPa | 0 mm | - | 313 W/m² | - |
| 1777759486 | 18.89° C | 43% | 1015.5 hPa | 0 mm | - | 105 W/m² | - |
| 1777759183 | 19.44° C | 35% | 1015.5 hPa | 0 mm | - | 191 W/m² | - |
| 1777758880 | 20° C | 37% | 1015.5 hPa | 0 mm | - | 327 W/m² | - |
| 1777758577 | 18.89° C | 39% | 1015.4 hPa | 0 mm | - | 90 W/m² | - |
| 1777758274 | 20° C | 40% | 1015.3 hPa | 0 mm | - | 84 W/m² | - |
| 1777757971 | 20.56° C | 38% | 1015.3 hPa | 0 mm | - | 98 W/m² | - |
| 1777757667 | 20° C | 38% | 1015.3 hPa | 0 mm | - | 390 W/m² | - |
| 1777757366 | 20° C | 41% | 1015.3 hPa | 0 mm | - | 413 W/m² | - |
| 1777757065 | 19.44° C | 36% | 1015.4 hPa | 0 mm | - | 475 W/m² | - |
| 1777756762 | 18.89° C | 37% | 1015.5 hPa | 0 mm | - | 329 W/m² | - |
| 1777756457 | 18.33° C | 42% | 1015.3 hPa | 0 mm | - | 369 W/m² | - |
| 1777756154 | 20° C | 38% | 1015.3 hPa | 0 mm | - | 136 W/m² | - |
| 1777755818 | 19.44° C | 39% | 1015.3 hPa | 0 mm | - | 572 W/m² | - |
| 1777755515 | 19.44° C | 39% | 1015.3 hPa | 0 mm | - | 572 W/m² | - |
| 1777755211 | 20° C | 36% | 1015.4 hPa | 0 mm | - | 164 W/m² | - |
| 1777754908 | 20.56° C | 37% | 1015.2 hPa | 0 mm | - | 500 W/m² | - |
* Rain latest hour (hover to see other rain measurements)
** Current wind speed in m/s (hover to see current wind gust speed)